This demonstration page uses our WeatherBlox Daily Observations layout. Learn more.

Left ArrowRight Arrow

Hourly Observations for March 19, 2022

Temp ( °F °C ) Dew Point ( °F °C ) Humidity (%) Winds ( mph kmh ) Pressure ( in mb ) Visibility ( mi km ) Precip ( " mm )
12:53 am 00:53 Clear 42 5.6 17 -8.3 36 36 Calm 30.10 1019 10 16 0.00 0.00
1:53 am 01:53 Clear 36 2.2 13 -10.6 39 39 N 8 13 30.11 1020 10 16 0.00 0.00
2:53 am 02:53 Clear 36 2.2 14 -10 40 40 NNE 6 9 30.10 1019 10 16 0.00 0.00
3:53 am 03:53 Clear 32 0 11 -11.7 41 41 NNE 6 9 30.11 1020 10 16 0.00 0.00
4:53 am 04:53 Clear 31 -0.6 11 -11.7 43 43 N 6 9 30.10 1019 10 16 0.00 0.00
5:53 am 05:53 Clear 30 -1.1 10 -12.2 43 43 N 7 11 30.10 1019 10 16 0.00 0.00
6:53 am 06:53 Clear 29 -1.7 10 -12.2 45 45 N 8 13 30.13 1020 10 16 0.00 0.00
7:53 am 07:53 Clear 28 -2.2 10 -12.2 47 47 NNE 5 7 30.14 1021 10 16 0.00 0.00
8:53 am 08:53 Sunny 35 1.7 14 -10 42 42 N 5 7 30.16 1021 10 16 0.00 0.00
9:53 am 09:53 Sunny 48 8.9 20 -6.7 33 33 SSE 3 6 30.16 1022 10 16 0.00 0.00
10:53 am 10:53 Sunny 57 13.9 21 -6.1 25 25 SSE 9 15 30.16 1021 10 16 0.00 0.00
11:53 am 11:53 Sunny 63 17.2 21 -6.1 20 20 SSE 14 22 30.14 1021 10 16 0.00 0.00
12:53 pm 12:53 Sunny 67 19.4 20 -6.7 17 17 S 14 22 30.13 1020 10 16 0.00 0.00
1:53 pm 13:53 Sunny 71 21.7 16 -8.9 12 12 VRB 5 7 30.10 1019 10 16 0.00 0.00
2:53 pm 14:53 Sunny 72 22.2 10 -12.2 9 9 VRB 3 6 30.06 1018 10 16 0.00 0.00
3:53 pm 15:53 Sunny 73 22.8 7 -13.9 7 7 VRB 3 6 30.03 1017 10 16 0.00 0.00
4:53 pm 16:53 Sunny 75 23.9 6 -14.4 7 7 SSW 7 11 30.01 1016 10 16 0.00 0.00
5:53 pm 17:53 Sunny 75 23.9 4 -15.6 6 6 VRB 6 9 29.99 1016 10 16 0.00 0.00
6:53 pm 18:53 Sunny 75 23.9 3 -16.1 6 6 SSW 7 11 29.99 1016 10 16 0.00 0.00
7:53 pm 19:53 Sunny 72 22.2 2 -16.7 6 6 Calm 30.00 1016 10 16 0.00 0.00
8:53 pm 20:53 Clear 67 19.4 2 -16.7 7 7 E 5 7 30.01 1016 10 16 0.00 0.00
9:53 pm 21:53 Clear 63 17.2 4 -15.6 9 9 SE 10 17 30.00 1016 10 16 0.00 0.00
10:53 pm 22:53 Clear 63 17.2 18 -7.8 17 17 SE 15 24 30.00 1016 10 16 0.00 0.00
11:53 pm 23:53 Clear 61 16.1 22 -5.6 22 22 SE 17 28 29.99 1016 10 16 0.00 0.00

Powered by AerisWeather